QPF
0.00 0.00 0.00 0.00 0.00 0.00 0.00 0.00 0.00 0.00 0.00 0.00 0.00 0.00 0.00 0.00 0.00 0.02 0.01 0.00 0.01 0.01 0.00 0.00 0.00 0.00 0.00 0.00 0.00 0.00 0.00 0.00 0.01 0.03 0.04 0.03 0.01 0.00 0.00 0.00 0.00 0.00 0.00 0.00 0.00 0.00 0.00 0.00 0.00 0.00 0.00 0.00 0.00 0.00
0.00 0.00 0.00 0.00 0.00 0.00 0.00 0.00 0.00 0.00 0.00 0.00 0.00 0.00 0.00 0.00 0.00 0.02 0.02 0.01 0.02 0.03 0.00 0.00 0.00 0.00 0.00 0.00 0.00 0.00 0.00 0.00 0.00 0.02 0.03 0.04 0.04 0.01 0.00 0.00 0.00 0.00 0.00 0.00 0.00 0.00 0.00 0.00 0.00 0.00 0.00 0.00 0.00 0.00
0.00 0.00 0.00 0.00 0.00 0.00 0.00 0.00 0.00 0.01 0.00 0.00 0.00 0.00 0.01 0.00 0.00 0.02 0.02 0.01 0.02 0.01 0.00 0.00 0.00 0.00 0.00 0.00 0.00 0.00 0.00 0.00 0.00 0.00 0.00 0.01 0.03 0.03 0.00 0.00 0.00 0.00 0.00 0.00 0.00 0.00 0.00 0.00 0.00 0.00 0.00 0.00 0.00 0.00
0.00 0.00 0.00 0.00 0.00 0.00 0.00 0.01 0.00 0.00 0.00 0.00 0.00 0.00 0.00 0.00 0.00 0.01 0.02 0.02 0.02 0.02 0.01 0.00 0.00 0.00 0.00 0.00 0.00 0.00 0.00 0.00 0.00 0.00 0.00 0.01 0.03 0.04 0.03 0.00 0.00 0.00 0.00 0.00 0.00 0.00 0.00 0.00 0.00 0.00 0.00 0.00 0.00 0.00
0.00 0.00 0.00 0.00 0.00 0.00 0.00 0.00 0.00 0.01 0.00 0.00 0.00 0.00 0.00 0.00 0.00 0.01 0.01 0.00 0.00 0.01 0.00 0.00 0.00 0.00 0.00 0.00 0.00 0.00 0.00 0.00 0.00 0.00 0.00 0.00 0.01 0.01 0.01 0.00 0.00 0.00 0.00 0.00 0.00 0.00 0.00 0.00 0.00 0.00 0.00 0.00 0.00 0.00
0.00 0.00 0.00 0.00 0.00 0.00 0.00 0.01 0.00 0.00 0.00 0.00 0.00 0.00 0.01 0.00 0.01 0.01 0.00 0.01 0.00 0.01 0.01 0.00 0.00 0.00 0.00 0.00 0.00 0.00 0.00 0.00 0.00 0.00 0.00 0.00 0.00 0.00 0.03 0.04 0.00 0.00 0.00 0.00 0.00 0.00 0.00 0.00 0.00 0.00 0.00 0.00 0.00 0.00
0.00 0.00 0.00 0.00 0.00 0.00 0.00 0.00 0.00 0.01 0.00 0.00 0.00 0.00 0.00 0.00 0.01 0.01 0.00 0.01 0.00 0.00 0.03 0.01 0.00 0.00 0.00 0.00 0.00 0.00 0.00 0.00 0.00 0.01 0.01 0.00 0.00 0.00 0.01 0.02 0.00 0.00 0.00 0.00 0.00 0.00 0.00 0.00 0.00 0.00 0.00 0.00 0.00 0.00
0.00 0.00 0.00 0.00 0.00 0.00 0.00 0.00 0.00 0.00 0.00 0.00 0.00 0.00 0.01 0.00 0.01 0.00 0.00 0.00 0.00 0.00 0.01 0.01 0.00 0.00 0.00 0.01 0.00 0.00 0.00 0.01 0.02 0.01 0.01 0.01 0.00 0.00 0.00 0.00 0.00 0.00 0.00 0.00 0.00 0.00 0.00 0.00 0.00 0.00 0.00 0.00 0.00 0.00
0.00 0.00 0.00 0.00 0.00 0.01 0.00 0.00 0.00 0.00 0.00 0.00 0.00 0.00 0.00 0.00 0.01 0.00 0.00 0.00 0.01 0.01 0.04 0.02 0.00 0.00 0.00 0.04 0.03 0.00 0.01 0.03 0.03 0.01 0.00 0.01 0.01 0.00 0.00 0.00 0.00 0.00 0.00 0.00 0.00 0.00 0.00 0.00 0.00 0.00 0.00 0.00 0.00 0.00
0.00 0.00 0.00 0.01 0.01 0.01 0.00 0.00 0.00 0.00 0.00 0.00 0.00 0.00 0.01 0.00 0.00 0.01 0.02 0.02 0.02 0.04 0.02 0.00 0.00 0.00 0.00 0.00 0.02 0.02 0.01 0.01 0.01 0.01 0.01 0.01 0.01 0.00 0.00 0.00 0.00 0.00 0.00 0.00 0.00 0.00 0.00 0.00 0.00 0.00 0.00 0.00 0.00 0.00
0.00 0.00 0.00 0.01 0.02 0.01 0.00 0.00 0.00 0.00 0.01 0.01 0.00 0.01 0.01 0.00 0.01 0.01 0.03 0.03 0.01 0.01 0.01 0.00 0.00 0.00 0.00 0.00 0.02 0.03 0.04 0.05 0.05 0.04 0.02 0.03 0.02 0.01 0.00 0.00 0.00 0.00 0.00 0.00 0.00 0.00 0.00 0.00 0.00 0.00 0.00 0.00 0.00 0.00
0.00 0.00 0.00 0.01 0.01 0.01 0.00 0.00 0.00 0.01 0.02 0.01 0.01 0.01 0.00 0.00 0.01 0.01 0.03 0.04 0.01 0.02 0.01 0.00 0.00 0.00 0.00 0.00 0.02 0.06 0.08 0.07 0.06 0.02 0.01 0.03 0.06 0.06 0.02 0.00 0.00 0.00 0.00 0.00 0.00 0.00 0.00 0.00 0.00 0.00 0.00 0.00 0.00 0.00
0.00 0.00 0.00 0.00 0.00 0.00 0.00 0.00 0.00 0.00 0.00 0.01 0.02 0.01 0.00 0.00 0.00 0.00 0.00 0.03 0.05 0.01 0.01 0.00 0.01 0.02 0.01 0.01 0.03 0.06 0.06 0.04 0.04 0.05 0.05 0.08 0.09 0.06 0.00 0.00 0.00 0.00 0.00 0.00 0.00 0.00 0.00 0.00 0.00 0.00 0.00 0.00 0.00 0.00
0.00 0.00 0.00 0.00 0.00 0.00 0.00 0.01 0.00 0.00 0.01 0.01 0.00 0.00 0.01 0.01 0.01 0.01 0.03 0.05 0.04 0.04 0.04 0.02 0.03 0.08 0.07 0.08 0.11 0.07 0.04 0.03 0.02 0.03 0.03 0.03 0.03 0.01 0.00 0.00 0.00 0.00 0.00 0.00 0.00 0.00 0.01 0.01 0.00 0.00 0.00 0.00 0.00 0.00
0.00 0.00 0.00 0.00 0.00 0.00 0.01 0.02 0.01 0.02 0.01 0.01 0.01 0.00 0.00 0.00 0.00 0.01 0.01 0.00 0.04 0.02 0.01 0.01 0.03 0.05 0.07 0.08 0.07 0.04 0.01 0.02 0.04 0.02 0.01 0.01 0.01 0.00 0.00 0.00 0.00 0.00 0.00 0.00 0.00 0.00 0.01 0.01 0.00 0.00 0.00 0.00 0.00 0.00
0.00 0.00 0.00 0.00 0.00 0.00 0.00 0.02 0.01 0.01 0.01 0.00 0.00 0.00 0.00 0.00 0.00 0.00 0.01 0.00 0.00 0.00 0.01 0.02 0.03 0.02 0.00 0.02 0.05 0.06 0.03 0.02 0.02 0.03 0.02 0.01 0.00 0.02 0.05 0.01 0.00 0.00 0.00 0.00 0.00 0.00 0.00 0.00 0.00 0.00 0.00 0.00 0.00 0.00
0.00 0.00 0.00 0.00 0.00 0.00 0.00 0.02 0.01 0.01 0.00 0.00 0.00 0.00 0.00 0.00 0.00 0.00 0.00 0.00 0.00 0.01 0.02 0.03 0.04 0.04 0.01 0.04 0.05 0.08 0.05 0.02 0.02 0.03 0.02 0.03 0.01 0.02 0.03 0.04 0.07 0.01 0.00 0.00 0.00 0.00 0.00 0.00 0.00 0.00 0.00 0.00 0.00 0.00
0.00 0.00 0.00 0.00 0.01 0.01 0.02 0.01 0.01 0.02 0.00 0.00 0.00 0.00 0.00 0.00 0.00 0.00 0.00 0.00 0.00 0.01 0.01 0.00 0.02 0.02 0.01 0.04 0.08 0.06 0.07 0.05 0.03 0.07 0.06 0.06 0.04 0.01 0.00 0.00 0.02 0.02 0.00 0.00 0.00 0.00 0.00 0.00 0.00 0.00 0.00 0.00 0.00 0.00
0.00 0.00 0.00 0.00 0.01 0.02 0.03 0.01 0.02 0.01 0.00 0.00 0.00 0.00 0.00 0.00 0.00 0.00 0.00 0.00 0.00 0.00 0.00 0.01 0.03 0.01 0.00 0.00 0.01 0.01 0.02 0.02 0.01 0.02 0.03 0.04 0.04 0.03 0.00 0.00 0.00 0.00 0.00 0.00 0.00 0.00 0.00 0.00 0.00 0.00 0.00 0.00 0.00 0.00
0.00 0.00 0.00 0.00 0.01 0.02 0.01 0.03 0.02 0.01 0.00 0.00 0.00 0.00 0.00 0.00 0.00 0.00 0.00 0.00 0.00 0.02 0.03 0.01 0.00 0.00 0.00 0.02 0.01 0.00 0.00 0.00 0.00 0.01 0.05 0.08 0.09 0.03 0.00 0.00 0.00 0.00 0.00 0.00 0.00 0.00 0.00 0.00 0.00 0.00 0.00 0.00 0.00 0.00
0.00 0.00 0.00 0.00 0.02 0.01 0.01 0.02 0.02 0.01 0.01 0.00 0.00 0.00 0.00 0.00 0.00 0.00 0.00 0.00 0.00 0.01 0.00 0.00 0.00 0.00 0.00 0.01 0.00 0.00 0.00 0.00 0.00 0.01 0.04 0.10 0.06 0.00 0.00 0.00 0.00 0.00 0.00 0.00 0.00 0.00 0.00 0.00 0.00 0.00 0.00 0.00 0.00 0.00
0.01 0.01 0.01 0.00 0.02 0.02 0.01 0.01 0.01 0.01 0.00 0.00 0.00 0.00 0.00 0.00 0.01 0.01 0.00 0.00 0.00 0.00 0.00 0.00 0.00 0.00 0.00 0.00 0.00 0.00 0.00 0.00 0.00 0.01 0.02 0.01 0.06 0.07 0.03 0.00 0.00 0.00 0.00 0.00 0.00 0.00 0.00 0.00 0.00 0.00 0.00 0.00 0.00 0.00
0.00 0.01 0.02 0.01 0.01 0.01 0.00 0.00 0.01 0.01 0.01 0.01 0.03 0.03 0.02 0.03 0.04 0.02 0.01 0.00 0.00 0.00 0.00 0.00 0.00 0.00 0.00 0.00 0.01 0.02 0.00 0.05 0.06 0.02 0.01 0.00 0.00 0.00 0.01 0.01 0.00 0.00 0.00 0.00 0.00 0.00 0.00 0.00 0.00 0.00 0.00 0.00 0.00 0.00
0.01 0.02 0.02 0.01 0.00 0.00 0.00 0.01 0.01 0.01 0.01 0.02 0.02 0.01 0.02 0.05 0.04 0.02 0.01 0.01 0.00 0.02 0.04 0.03 0.02 0.06 0.08 0.09 0.09 0.03 0.01 0.01 0.01 0.00 0.00 0.00 0.01 0.03 0.04 0.03 0.00 0.00 0.00 0.00 0.00 0.00 0.00 0.00 0.00 0.00 0.00 0.00 0.00 0.00
0.01 0.00 0.01 0.00 0.01 0.01 0.00 0.00 0.00 0.01 0.01 0.02 0.01 0.01 0.03 0.01 0.01 0.01 0.01 0.05 0.09 0.13 0.07 0.01 0.00 0.10 0.16 0.17 0.02 0.00 0.00 0.00 0.04 0.06 0.02 0.00 0.01 0.02 0.04 0.02 0.00 0.00 0.01 0.05 0.06 0.04 0.00 0.01 0.00 0.00 0.00 0.00 0.00 0.00
0.00 0.00 0.00 0.00 0.01 0.01 0.01 0.01 0.01 0.01 0.01 0.01 0.01 0.02 0.01 0.01 0.01 0.02 0.06 0.10 0.10 0.12 0.04 0.00 0.00 0.06 0.08 0.05 0.03 0.02 0.00 0.01 0.03 0.03 0.01 0.00 0.01 0.03 0.04 0.04 0.06 0.05 0.01 0.02 0.01 0.00 0.01 0.03 0.03 0.01 0.00 0.00 0.00 0.00
0.00 0.00 0.00 0.00 0.01 0.01 0.00 0.00 0.00 0.01 0.01 0.01 0.01 0.01 0.01 0.00 0.00 0.01 0.08 0.10 0.05 0.00 0.00 0.00 0.00 0.00 0.01 0.01 0.02 0.00 0.00 0.03 0.06 0.02 0.02 0.00 0.00 0.00 0.00 0.00 0.01 0.01 0.00 0.00 0.01 0.04 0.01 0.01 0.00 0.00 0.00 0.00 0.00 0.00
0.00 0.00 0.00 0.01 0.01 0.00 0.00 0.01 0.01 0.01 0.02 0.01 0.01 0.01 0.01 0.01 0.01 0.00 0.03 0.01 0.02 0.02 0.00 0.00 0.00 0.01 0.02 0.01 0.02 0.03 0.06 0.04 0.01 0.00 0.00 0.00 0.00 0.00 0.00 0.00 0.00 0.00 0.00 0.00 0.00 0.00 0.00 0.00 0.00 0.00 0.00 0.00 0.00 0.00
0.00 0.00 0.00 0.00 0.00 0.00 0.01 0.02 0.01 0.01 0.00 0.01 0.01 0.03 0.02 0.01 0.01 0.01 0.02 0.04 0.02 0.00 0.00 0.00 0.00 0.01 0.00 0.00 0.00 0.00 0.00 0.00 0.00 0.00 0.00 0.00 0.00 0.00 0.00 0.00 0.00 0.00 0.00 0.00 0.00 0.00 0.00 0.00 0.00 0.00 0.00 0.00 0.00 0.00
0.00 0.00 0.00 0.00 0.00 0.01 0.01 0.01 0.01 0.01 0.00 0.00 0.01 0.01 0.01 0.01 0.01 0.01 0.02 0.01 0.00 0.00 0.00 0.00 0.00 0.00 0.00 0.00 0.00 0.00 0.00 0.00 0.00 0.00 0.00 0.00 0.00 0.00 0.00 0.00 0.00 0.00 0.00 0.00 0.00 0.00 0.00 0.00 0.00 0.00 0.00 0.00 0.00 0.00
0.01 0.01 0.01 0.01 0.01 0.00 0.00 0.00 0.00 0.00 0.00 0.01 0.01 0.02 0.02 0.01 0.02 0.02 0.02 0.00 0.00 0.00 0.00 0.00 0.00 0.00 0.00 0.00 0.00 0.00 0.00 0.00 0.00 0.00 0.00 0.00 0.00 0.00 0.00 0.00 0.00 0.00 0.00 0.00 0.00 0.00 0.00 0.00 0.00 0.00 0.00 0.00 0.00 0.00
0.01 0.01 0.01 0.00 0.00 0.01 0.01 0.01 0.01 0.01 0.00 0.00 0.00 0.01 0.01 0.02 0.01 0.00 0.00 0.00 0.00 0.00 0.00 0.00 0.00 0.00 0.00 0.00 0.00 0.00 0.00 0.00 0.00 0.00 0.00 0.00 0.00 0.00 0.00 0.00 0.00 0.00 0.00 0.00 0.00 0.00 0.00 0.00 0.00 0.00 0.00 0.00 0.00 0.00
0.00 0.00 0.00 0.00 0.00 0.03 0.04 0.03 0.02 0.01 0.00 0.00 0.00 0.00 0.00 0.00 0.00 0.00 0.00 0.00 0.00 0.00 0.00 0.00 0.00 0.00 0.00 0.00 0.00 0.00 0.00 0.00 0.00 0.00 0.00 0.00 0.00 0.00 0.00 0.00 0.00 0.00 0.00 0.00 0.00 0.00 0.00 0.00 0.00 0.00 0.00 0.00 0.00 0.00
MSLP
1021.78 1021.63 1021.49 1021.27 1021.07 1020.84 1020.54 1020.25 1020.07 1019.86 1019.72 1019.46 1019.29 1019.01 1019.01 1018.78 1018.70 1018.55 1016.96 1017.40 1017.26 1015.68 1013.88 1013.29 1012.88 1012.38 1011.95 1011.74 1010.87 1009.90 1009.53 1008.61 1007.91 1007.18 1005.85 1004.45 1002.84 1001.22 1000.88 1000.07 1001.03 1000.36 1000.76 1000.67 1000.38 999.21 998.59 999.07 999.78 999.64 999.28 999.78 1000.20 1000.65
1021.40 1021.26 1021.20 1020.97 1020.77 1020.54 1020.26 1019.99 1019.82 1019.65 1019.48 1019.24 1019.07 1018.88 1018.77 1018.71 1018.61 1018.60 1017.20 1016.58 1017.28 1016.83 1014.16 1013.26 1012.85 1012.48 1012.06 1011.93 1011.80 1011.27 1009.80 1009.43 1009.05 1008.05 1006.97 1005.95 1004.57 1002.33 1000.79 1000.15 1001.07 1000.49 1000.58 1000.39 1000.35 999.55 999.41 999.16 998.95 999.64 999.95 1000.28 1000.85 1001.38
1020.97 1020.96 1020.89 1020.65 1020.50 1020.29 1019.93 1019.61 1019.54 1019.37 1019.20 1019.03 1018.86 1018.67 1018.53 1018.41 1018.36 1018.40 1017.61 1017.05 1016.72 1015.57 1013.46 1011.75 1010.90 1010.79 1011.38 1011.58 1011.88 1011.36 1010.33 1010.01 1009.70 1009.58 1008.75 1007.44 1006.02 1004.37 1001.95 1000.60 1000.35 1001.08 1001.20 1001.55 1001.06 1000.19 999.34 999.71 1000.26 1000.30 1000.53 1000.84 1001.46 1001.80
1020.69 1020.61 1020.49 1020.37 1020.23 1020.01 1019.65 1019.38 1019.25 1019.11 1018.91 1018.76 1018.54 1018.38 1018.28 1018.09 1018.01 1017.94 1017.54 1016.93 1016.85 1015.99 1014.02 1010.70 1010.70 1010.61 1010.29 1010.33 1010.80 1010.99 1010.89 1010.69 1011.07 1010.67 1010.43 1009.10 1007.81 1005.94 1003.72 1002.07 1000.58 1000.58 1001.47 1002.04 1000.87 1000.91 1000.39 1000.37 1000.53 1000.83 1001.31 1001.84 1002.32 1002.84
1020.41 1020.32 1020.21 1020.12 1019.95 1019.68 1019.35 1019.14 1018.94 1018.82 1018.61 1018.45 1018.28 1018.17 1017.95 1017.69 1017.60 1017.46 1017.02 1016.41 1016.48 1016.53 1014.12 1011.61 1010.50 1009.52 1009.58 1009.72 1009.84 1010.31 1010.58 1010.84 1011.45 1011.29 1010.56 1009.70 1008.76 1008.00 1005.11 1003.31 1001.08 1000.84 1000.60 1000.64 999.98 1000.55 999.83 999.99 1000.74 1001.21 1001.76 1002.36 1003.07 1003.31
1020.05 1019.96 1019.91 1019.76 1019.53 1019.31 1019.13 1018.92 1018.66 1018.44 1018.28 1018.17 1018.04 1017.86 1017.59 1017.36 1017.32 1017.08 1015.48 1015.72 1015.30 1016.32 1015.97 1012.74 1009.58 1009.59 1009.43 1009.54 1009.75 1010.04 1010.31 1010.66 1011.50 1010.52 1009.34 1008.57 1008.40 1008.41 1006.90 1003.20 1000.92 1001.30 1001.24 1001.13 1000.57 1000.97 1000.32 1000.05 1000.98 1001.80 1002.02 1002.71 1003.44 1003.61
1019.68 1019.66 1019.48 1019.22 1019.05 1018.93 1018.76 1018.58 1018.29 1018.07 1017.98 1017.89 1017.76 1017.57 1017.32 1017.15 1017.06 1016.48 1015.83 1016.33 1016.45 1016.72 1015.59 1012.90 1010.12 1010.33 1010.00 1009.70 1009.91 1010.00 1010.33 1010.82 1011.02 1010.74 1009.65 1008.83 1008.07 1008.01 1006.80 1004.29 1001.20 1001.32 1001.36 1001.28 1000.82 1001.15 1001.39 1000.66 1001.36 1002.07 1002.43 1003.27 1003.97 1003.91
1019.38 1019.18 1018.95 1018.71 1018.57 1018.47 1018.38 1018.21 1017.97 1017.83 1017.69 1017.59 1017.42 1017.20 1016.93 1016.72 1016.64 1015.81 1014.47 1015.07 1016.08 1016.15 1015.21 1013.09 1010.38 1010.26 1010.15 1009.67 1010.01 1010.44 1010.51 1010.96 1010.78 1010.19 1010.04 1009.42 1008.86 1007.97 1005.88 1003.55 1002.33 1001.86 1001.43 1001.48 1001.35 1001.34 1001.00 1001.22 1001.64 1002.18 1002.89 1003.68 1003.90 1004.10
1018.97 1018.71 1018.47 1018.31 1018.09 1017.89 1017.85 1017.80 1017.66 1017.56 1017.40 1017.26 1017.06 1016.78 1016.50 1016.15 1015.45 1014.51 1014.95 1015.24 1014.88 1014.77 1013.51 1012.00 1010.33 1010.24 1010.28 1009.86 1009.41 1009.76 1009.84 1010.02 1009.79 1009.73 1009.35 1009.38 1008.03 1006.52 1004.69 1003.22 1002.57 1002.06 1001.54 1001.49 1001.64 1001.75 1001.73 1001.49 1001.54 1002.66 1002.81 1003.52 1003.86 1004.13
1018.48 1018.29 1018.06 1017.87 1017.58 1017.39 1017.37 1017.36 1017.32 1017.21 1017.10 1016.98 1016.78 1015.98 1014.97 1014.57 1014.84 1014.97 1015.01 1014.64 1014.29 1013.64 1013.16 1011.63 1010.60 1009.78 1009.68 1010.10 1009.84 1009.93 1009.65 1009.13 1008.74 1008.14 1008.64 1008.22 1006.22 1004.83 1004.15 1003.13 1002.66 1002.31 1001.97 1001.53 1001.78 1001.38 1001.35 1001.42 1002.09 1002.69 1003.01 1003.48 1003.74 1004.13
1018.14 1017.95 1017.60 1017.27 1016.94 1016.86 1016.91 1016.99 1017.05 1016.92 1016.62 1016.43 1015.71 1014.78 1014.82 1014.65 1014.56 1014.31 1013.59 1013.33 1012.89 1012.42 1011.83 1011.15 1010.86 1010.10 1009.47 1009.36 1009.22 1009.39 1008.78 1008.33 1007.46 1006.90 1007.28 1006.20 1004.82 1003.82 1003.33 1002.82 1002.45 1002.48 1002.25 1002.19 1002.15 1001.98 1002.15 1002.03 1002.05 1002.47 1003.08 1003.53 1003.82 1004.30
1017.72 1017.53 1017.15 1016.80 1016.45 1016.38 1016.54 1016.68 1016.79 1016.73 1016.32 1016.36 1016.24 1015.50 1014.88 1014.03 1013.72 1013.11 1012.00 1011.47 1011.22 1010.80 1011.18 1011.39 1011.01 1010.82 1009.88 1009.38 1008.84 1008.22 1007.22 1006.65 1005.79 1006.48 1006.82 1005.14 1004.39 1004.03 1003.33 1002.83 1002.47 1001.99 1002.06 1002.09 1002.09 1002.61 1002.45 1002.04 1001.96 1002.55 1003.01 1003.44 1003.86 1004.34
1017.45 1017.22 1016.97 1016.72 1016.46 1016.36 1016.40 1016.47 1016.48 1016.41 1016.28 1015.75 1015.83 1014.84 1013.97 1013.19 1012.64 1011.66 1010.56 1009.96 1010.42 1010.99 1011.23 1010.99 1010.72 1009.94 1009.21 1009.08 1008.33 1006.99 1006.01 1005.22 1005.54 1005.34 1004.80 1004.67 1004.74 1004.09 1003.54 1002.93 1002.36 1001.59 1001.41 1001.70 1001.92 1002.20 1002.17 1002.11 1002.15 1002.60 1002.92 1003.47 1003.95 1004.44
1017.18 1016.96 1016.75 1016.55 1016.40 1016.30 1016.26 1016.25 1016.23 1016.27 1016.25 1015.50 1014.84 1014.06 1012.96 1011.70 1010.60 1009.86 1009.65 1009.86 1010.36 1010.44 1010.47 1010.42 1009.91 1009.12 1008.22 1007.90 1006.66 1005.71 1005.03 1004.99 1004.52 1004.66 1004.88 1005.23 1005.30 1004.39 1003.74 1003.03 1002.29 1001.53 1001.26 1001.31 1001.49 1001.59 1001.92 1002.14 1002.16 1002.71 1003.02 1003.53 1003.87 1004.28
1016.91 1016.64 1016.42 1016.25 1016.09 1016.07 1016.12 1016.08 1016.11 1016.02 1015.90 1015.25 1014.51 1013.02 1011.59 1010.42 1009.98 1009.68 1010.22 1010.15 1010.18 1010.62 1010.79 1010.41 1009.51 1008.86 1007.70 1006.82 1005.80 1005.19 1004.60 1004.32 1004.43 1005.85 1006.23 1005.80 1005.49 1004.77 1003.85 1003.30 1002.53 1001.96 1001.45 1001.25 1001.34 1001.35 1001.56 1001.70 1002.21 1002.51 1003.05 1003.15 1003.54 1003.94
1016.57 1016.30 1016.09 1016.13 1016.02 1016.01 1016.05 1016.07 1016.05 1015.98 1015.41 1014.71 1013.85 1012.03 1010.71 1010.14 1009.41 1009.36 1009.55 1009.85 1010.62 1010.64 1010.48 1010.47 1009.36 1008.34 1007.28 1006.02 1005.15 1004.40 1004.20 1004.97 1005.41 1006.08 1006.15 1005.92 1005.23 1005.19 1004.46 1003.70 1002.98 1002.43 1001.89 1001.42 1001.33 1001.37 1001.71 1001.72 1001.66 1002.24 1002.67 1002.78 1002.99 1003.32
1016.38 1016.25 1016.15 1015.89 1015.94 1016.01 1016.07 1016.05 1015.94 1015.46 1014.60 1013.52 1011.94 1011.15 1010.63 1009.87 1009.52 1009.29 1009.39 1009.92 1010.65 1010.45 1009.96 1009.31 1008.41 1006.90 1006.37 1005.47 1004.36 1004.07 1004.60 1005.37 1005.37 1005.63 1005.55 1005.49 1005.38 1005.02 1004.61 1003.94 1003.31 1002.64 1001.95 1001.65 1001.17 1001.39 1001.55 1001.49 1001.79 1002.08 1002.13 1002.23 1002.34 1002.72
1016.15 1016.25 1016.04 1015.90 1015.86 1015.96 1015.91 1015.79 1015.28 1014.45 1013.20 1011.87 1010.97 1009.97 1009.73 1009.51 1009.25 1009.05 1009.17 1009.59 1009.94 1009.96 1009.79 1009.16 1008.13 1006.45 1005.11 1004.33 1004.09 1004.54 1004.81 1004.96 1005.01 1004.91 1004.76 1004.60 1004.57 1004.63 1004.48 1004.15 1003.60 1003.02 1002.46 1002.14 1001.94 1001.71 1001.68 1001.57 1001.51 1001.78 1002.05 1002.14 1002.38 1002.42
1016.27 1016.15 1016.14 1016.07 1016.03 1015.92 1015.28 1015.21 1014.69 1013.59 1012.20 1011.11 1010.38 1009.92 1009.54 1009.05 1008.67 1008.59 1008.67 1008.73 1009.18 1009.77 1009.44 1008.57 1007.06 1005.35 1004.32 1004.06 1003.88 1004.01 1004.43 1004.41 1004.16 1003.96 1003.74 1003.81 1003.76 1003.64 1003.55 1003.46 1003.13 1002.86 1002.71 1002.60 1002.48 1002.07 1001.73 1001.84 1001.28 1001.35 1001.57 1001.89 1002.01 1001.91
1016.06 1015.94 1015.96 1016.00 1016.04 1015.72 1015.14 1014.46 1014.16 1013.11 1011.71 1010.68 1010.26 1009.66 1009.09 1008.35 1007.91 1007.91 1007.76 1007.87 1008.37 1008.41 1007.78 1006.79 1005.33 1004.27 1004.02 1004.27 1004.30 1004.22 1004.34 1004.41 1004.20 1003.68 1003.76 1003.81 1003.70 1003.20 1003.15 1003.24 1002.91 1002.70 1002.28 1002.15 1001.97 1001.92 1001.70 1001.36 1001.35 1001.56 1001.68 1001.69 1001.37 1001.33
1015.79 1015.62 1015.71 1015.67 1015.64 1015.26 1014.99 1013.94 1013.46 1012.79 1011.83 1011.04 1010.07 1009.45 1008.50 1007.60 1007.51 1007.17 1006.88 1007.06 1007.17 1006.26 1005.35 1004.61 1004.26 1003.91 1003.99 1003.96 1004.03 1004.07 1004.29 1004.76 1004.58 1003.89 1003.89 1003.87 1003.65 1003.27 1003.01 1002.81 1002.70 1002.58 1002.24 1002.00 1001.93 1001.88 1001.95 1001.88 1001.80 1001.80 1001.88 1001.89 1001.74 1001.70
1015.59 1015.69 1015.66 1015.74 1015.09 1014.92 1014.26 1013.09 1012.56 1011.96 1011.41 1009.79 1009.15 1008.63 1007.90 1007.15 1006.70 1006.54 1006.65 1006.42 1005.34 1004.55 1004.27 1004.06 1003.79 1003.73 1003.68 1003.82 1003.91 1004.13 1004.24 1004.46 1004.25 1004.02 1004.12 1004.16 1003.53 1003.25 1003.03 1002.78 1002.54 1002.21 1002.04 1002.07 1002.22 1002.17 1002.23 1002.26 1002.50 1002.14 1002.12 1002.08 1002.28 1002.31
1015.84 1015.77 1015.41 1015.23 1014.49 1014.32 1013.27 1012.47 1012.08 1011.24 1010.48 1009.19 1008.80 1008.16 1007.41 1006.85 1006.51 1006.56 1005.77 1004.62 1004.11 1003.97 1003.98 1004.00 1004.12 1004.23 1004.14 1003.99 1004.09 1004.20 1004.36 1004.25 1004.06 1004.01 1003.84 1003.45 1003.26 1003.22 1002.96 1003.00 1002.95 1002.68 1002.38 1002.41 1002.66 1002.53 1002.54 1003.29 1002.89 1002.58 1002.45 1002.37 1002.10 1002.49
1015.70 1015.43 1014.93 1014.55 1014.11 1013.42 1012.41 1011.70 1011.40 1010.84 1009.92 1009.09 1008.22 1007.31 1006.82 1006.77 1006.67 1006.10 1005.06 1004.28 1003.83 1004.04 1004.15 1004.21 1004.08 1003.95 1003.90 1003.92 1004.14 1004.42 1004.74 1004.72 1004.45 1004.11 1004.01 1003.53 1003.23 1003.52 1003.39 1003.23 1003.14 1003.13 1003.32 1003.16 1002.73 1002.67 1002.70 1002.66 1003.28 1002.63 1002.67 1002.61 1002.58 1002.49
1015.43 1015.03 1014.54 1013.86 1013.41 1012.75 1011.60 1010.80 1010.29 1010.07 1009.42 1008.87 1008.19 1007.39 1007.11 1007.10 1006.50 1005.63 1004.66 1004.30 1004.36 1004.28 1004.18 1003.92 1003.89 1003.90 1003.95 1004.17 1004.61 1005.11 1005.12 1004.93 1004.74 1004.54 1004.52 1004.10 1003.85 1003.62 1003.67 1003.50 1003.53 1003.72 1003.59 1003.63 1003.45 1003.09 1002.91 1002.75 1002.72 1002.88 1003.21 1003.14 1003.05 1002.96
1014.42 1013.68 1013.48 1012.26 1011.88 1011.49 1010.90 1010.45 1010.05 1009.84 1009.51 1008.94 1008.49 1008.27 1008.20 1007.91 1007.14 1005.60 1005.10 1004.99 1004.91 1004.82 1004.67 1004.55 1004.46 1004.29 1004.59 1004.82 1005.12 1005.47 1005.86 1005.73 1005.56 1005.24 1005.33 1004.58 1004.20 1004.04 1003.68 1003.72 1003.89 1004.16 1004.18 1004.10 1004.08 1004.11 1004.15 1003.80 1003.72 1003.77 1003.96 1003.97 1003.95 1003.59
1013.58 1012.40 1011.83 1011.54 1011.24 1011.25 1010.87 1010.25 1010.01 1009.84 1009.44 1009.34 1009.12 1009.05 1008.65 1008.04 1006.98 1006.12 1005.84 1005.82 1005.64 1005.46 1005.33 1005.42 1004.66 1004.73 1005.47 1005.92 1006.08 1006.04 1005.72 1005.59 1005.38 1005.30 1005.29 1004.96 1004.74 1004.47 1004.31 1004.24 1004.41 1005.03 1004.95 1004.93 1004.94 1004.84 1004.93 1005.19 1005.26 1005.29 1005.29 1005.27 1005.10 1005.10
1012.64 1011.93 1011.29 1010.95 1010.87 1010.74 1010.79 1010.61 1010.12 1009.62 1009.52 1009.65 1009.59 1008.83 1008.26 1007.84 1007.28 1006.73 1006.54 1006.42 1006.08 1005.85 1005.93 1005.82 1005.59 1005.91 1006.35 1006.68 1006.56 1006.40 1006.21 1005.89 1005.71 1005.38 1004.89 1004.82 1004.94 1005.15 1005.09 1005.05 1005.52 1006.02 1005.63 1005.77 1004.97 1004.65 1004.87 1005.05 1005.15 1005.29 1005.28 1005.14 1005.08 1005.07
1011.92 1011.50 1011.37 1010.75 1010.57 1010.64 1010.33 1010.03 1009.60 1009.52 1009.62 1009.66 1009.55 1008.60 1007.80 1007.48 1007.33 1006.96 1006.63 1006.19 1005.96 1005.84 1005.72 1005.76 1005.93 1006.43 1006.84 1007.05 1006.88 1006.69 1006.22 1005.38 1005.42 1005.29 1005.17 1005.29 1005.39 1005.60 1005.50 1005.34 1005.39 1005.28 1005.12 1005.63 1006.40 1006.24 1006.14 1006.11 1005.75 1005.53 1005.22 1005.18 1005.27 1005.20
1011.06 1011.08 1010.82 1010.27 1009.92 1009.53 1009.17 1009.30 1009.11 1008.88 1008.77 1008.87 1008.88 1007.92 1007.24 1007.31 1006.88 1006.93 1006.58 1006.04 1005.23 1005.12 1004.98 1004.97 1005.43 1006.05 1006.47 1006.87 1007.26 1007.19 1006.76 1006.55 1006.43 1006.35 1006.34 1006.31 1006.38 1006.50 1006.37 1006.16 1006.01 1006.21 1006.28 1005.96 1006.04 1006.44 1006.49 1006.51 1006.46 1005.70 1005.81 1005.81 1006.03 1005.59
1010.66 1010.70 1010.51 1009.98 1009.53 1008.95 1008.40 1008.42 1008.41 1008.15 1007.72 1007.52 1007.08 1006.41 1006.66 1006.90 1006.95 1006.64 1006.28 1005.90 1005.52 1005.20 1005.27 1005.30 1005.54 1005.83 1006.05 1006.24 1006.59 1006.99 1007.39 1007.68 1007.74 1007.72 1007.56 1007.28 1007.28 1007.38 1007.28 1007.14 1006.93 1006.88 1006.78 1006.67 1006.74 1006.78 1006.67 1006.79 1006.92 1007.00 1007.03 1007.08 1007.22 1007.12
1010.16 1010.02 1009.86 1009.66 1008.98 1008.03 1007.83 1007.67 1007.25 1007.07 1007.08 1006.61 1006.36 1005.78 1005.97 1006.11 1005.96 1005.97 1006.46 1005.84 1005.68 1005.77 1006.00 1006.06 1006.32 1006.72 1007.04 1007.50 1007.91 1008.39 1008.55 1008.77 1008.84 1008.98 1008.85 1008.53 1008.41 1008.42 1008.20 1008.08 1007.96 1007.86 1007.79 1007.78 1007.88 1007.86 1007.86 1007.80 1007.85 1007.79 1007.66 1007.83 1007.80 1007.73
1009.38 1009.42 1009.28 1009.11 1008.36 1007.53 1006.79 1006.57 1006.08 1006.30 1006.47 1006.44 1006.30 1006.09 1005.64 1005.53 1005.75 1006.14 1006.54 1006.28 1005.78 1005.95 1006.36 1006.89 1007.32 1007.72 1008.14 1008.42 1008.94 1009.54 1009.96 1010.58 1010.97 1010.82 1010.66 1010.47 1010.21 1009.67 1009.14 1009.11 1009.09 1008.99 1008.90 1008.83 1008.85 1008.94 1009.01 1009.02 1008.98 1008.97 1008.84 1008.74 1008.63 1008.54
Thickness
5578 5575 5573 5570 5567 5564 5560 5557 5554 5551 5548 5547 5544 5544 5540 5540 5538 5536 5548 5542 5543 5556 5567 5570 5573 5574 5579 5580 5583 5598 5600 5609 5615 5615 5630 5642 5656 5679 5682 5703 5685 5696 5694 5699 5712 5717 5714 5760 5749 5732 5753 5760 5759 5758
5569 5566 5563 5560 5557 5554 5550 5547 5544 5541 5539 5538 5537 5535 5532 5530 5529 5527 5538 5541 5536 5536 5559 5565 5568 5573 5575 5577 5576 5577 5592 5595 5601 5608 5622 5629 5634 5666 5680 5675 5691 5685 5701 5706 5715 5727 5743 5754 5756 5759 5759 5751 5750 5748
5560 5556 5552 5550 5546 5543 5541 5539 5535 5533 5532 5531 5529 5527 5526 5524 5523 5521 5526 5530 5532 5542 5557 5568 5576 5580 5577 5576 5576 5572 5584 5591 5594 5599 5603 5615 5619 5645 5660 5679 5684 5687 5692 5687 5700 5722 5737 5743 5744 5749 5749 5747 5746 5747
5551 5547 5543 5539 5536 5534 5532 5531 5528 5526 5526 5524 5523 5522 5520 5519 5518 5517 5518 5523 5523 5530 5538 5570 5574 5573 5580 5580 5578 5576 5578 5582 5579 5583 5575 5591 5604 5631 5644 5663 5679 5687 5681 5683 5701 5706 5721 5730 5737 5739 5738 5737 5735 5733
5540 5537 5533 5530 5528 5526 5525 5524 5522 5520 5520 5519 5518 5516 5515 5515 5513 5512 5514 5518 5518 5519 5539 5557 5567 5578 5579 5578 5578 5577 5576 5574 5567 5568 5575 5580 5595 5604 5638 5653 5672 5686 5687 5687 5704 5709 5720 5725 5730 5734 5727 5724 5723 5721
5531 5528 5525 5523 5521 5519 5518 5517 5517 5515 5514 5513 5512 5511 5511 5511 5509 5510 5526 5518 5520 5513 5509 5539 5573 5568 5573 5573 5573 5572 5573 5572 5564 5576 5590 5599 5603 5592 5601 5640 5680 5681 5687 5694 5702 5709 5721 5732 5727 5724 5723 5720 5716 5716
5523 5520 5518 5517 5516 5514 5513 5512 5512 5511 5510 5508 5507 5506 5507 5507 5506 5512 5521 5511 5508 5505 5512 5537 5559 5557 5563 5568 5567 5569 5570 5566 5567 5569 5583 5593 5600 5596 5598 5619 5673 5677 5682 5690 5701 5704 5701 5715 5712 5716 5716 5712 5707 5711
5516 5515 5514 5512 5511 5510 5507 5506 5507 5506 5505 5503 5503 5503 5505 5505 5505 5513 5521 5515 5506 5505 5511 5529 5554 5553 5559 5561 5560 5562 5561 5559 5563 5571 5571 5575 5580 5586 5599 5640 5657 5668 5677 5682 5691 5699 5706 5711 5711 5708 5707 5702 5701 5701
5511 5511 5509 5508 5508 5506 5504 5502 5502 5502 5501 5500 5501 5502 5504 5508 5511 5519 5513 5510 5511 5514 5525 5538 5549 5544 5554 5557 5567 5567 5568 5561 5570 5567 5571 5568 5575 5585 5616 5637 5646 5658 5667 5673 5682 5688 5693 5698 5703 5698 5700 5697 5695 5695
5507 5506 5505 5503 5503 5503 5501 5499 5498 5497 5497 5497 5499 5508 5516 5517 5511 5510 5509 5511 5511 5518 5523 5537 5549 5551 5559 5549 5555 5557 5562 5567 5571 5580 5574 5571 5589 5609 5616 5631 5639 5648 5657 5668 5668 5679 5684 5690 5692 5689 5691 5694 5695 5693
5502 5500 5501 5500 5501 5499 5498 5496 5494 5494 5496 5499 5508 5515 5510 5510 5512 5513 5522 5521 5525 5528 5534 5540 5542 5548 5559 5558 5562 5559 5564 5569 5579 5587 5578 5589 5600 5617 5628 5633 5639 5644 5652 5657 5668 5675 5678 5685 5688 5686 5686 5688 5689 5688
5496 5494 5496 5497 5498 5497 5494 5492 5491 5491 5495 5496 5497 5501 5506 5513 5515 5522 5533 5536 5537 5539 5537 5532 5538 5537 5550 5559 5563 5572 5580 5587 5591 5590 5575 5596 5609 5615 5623 5628 5636 5646 5652 5656 5663 5662 5670 5681 5686 5684 5683 5684 5684 5684
5490 5490 5491 5492 5492 5492 5490 5489 5488 5489 5490 5495 5497 5507 5513 5519 5520 5527 5537 5545 5539 5534 5534 5540 5540 5548 5558 5559 5564 5580 5587 5594 5598 5594 5600 5603 5603 5612 5619 5627 5634 5647 5654 5657 5659 5662 5668 5675 5682 5681 5680 5681 5680 5679
5486 5487 5487 5487 5487 5487 5486 5486 5486 5486 5488 5495 5503 5505 5516 5524 5537 5544 5547 5543 5541 5544 5544 5545 5550 5556 5566 5566 5580 5586 5598 5599 5601 5598 5595 5597 5595 5608 5615 5626 5634 5643 5651 5656 5657 5662 5663 5667 5673 5674 5676 5676 5676 5675
5482 5483 5484 5484 5485 5484 5483 5484 5484 5485 5486 5494 5500 5513 5523 5537 5540 5544 5537 5542 5544 5541 5539 5544 5554 5559 5567 5573 5587 5592 5594 5596 5599 5582 5584 5592 5598 5605 5614 5621 5631 5638 5647 5651 5655 5660 5663 5667 5667 5667 5670 5676 5675 5676
5479 5481 5481 5481 5481 5481 5480 5480 5481 5482 5488 5493 5499 5518 5531 5533 5541 5543 5543 5543 5536 5536 5539 5541 5552 5557 5565 5582 5586 5593 5598 5586 5592 5586 5588 5591 5593 5598 5605 5614 5622 5632 5640 5648 5654 5656 5659 5664 5669 5668 5670 5675 5676 5677
5475 5477 5476 5478 5477 5477 5477 5478 5479 5484 5491 5500 5516 5523 5527 5533 5535 5541 5544 5540 5535 5539 5547 5555 5559 5573 5579 5581 5591 5599 5591 5586 5590 5590 5593 5594 5594 5600 5604 5608 5615 5625 5635 5643 5652 5655 5657 5664 5666 5667 5667 5672 5676 5677
5472 5471 5472 5474 5474 5474 5476 5478 5484 5491 5503 5516 5520 5530 5533 5534 5536 5542 5544 5543 5541 5542 5546 5552 5563 5574 5583 5587 5589 5592 5594 5595 5597 5601 5603 5605 5605 5601 5603 5606 5611 5617 5628 5637 5644 5650 5654 5658 5661 5661 5663 5667 5669 5673
5465 5466 5467 5468 5469 5471 5481 5481 5486 5493 5508 5518 5524 5528 5531 5535 5541 5545 5548 5550 5548 5542 5547 5554 5566 5580 5590 5596 5597 5597 5595 5600 5604 5610 5614 5613 5613 5614 5615 5615 5617 5619 5623 5628 5634 5642 5650 5652 5661 5664 5665 5666 5665 5671
5461 5463 5463 5464 5465 5469 5475 5486 5487 5497 5509 5518 5521 5525 5531 5539 5546 5550 5555 5556 5553 5553 5557 5564 5578 5592 5594 5593 5594 5596 5598 5602 5605 5609 5608 5610 5612 5618 5617 5615 5617 5619 5627 5630 5635 5632 5645 5652 5657 5659 5662 5664 5667 5668
5458 5460 5461 5463 5465 5471 5471 5482 5486 5494 5504 5508 5519 5524 5533 5545 5547 5554 5560 5563 5559 5569 5578 5588 5592 5596 5597 5598 5600 5601 5599 5595 5595 5606 5605 5605 5610 5615 5617 5620 5620 5621 5626 5630 5632 5633 5636 5642 5647 5650 5652 5654 5658 5660
5455 5455 5457 5458 5469 5469 5478 5491 5495 5502 5507 5522 5527 5532 5538 5546 5554 5559 5563 5563 5574 5584 5589 5592 5595 5597 5597 5596 5598 5599 5600 5599 5602 5604 5597 5600 5608 5611 5613 5618 5621 5624 5628 5629 5630 5631 5634 5637 5637 5643 5643 5645 5643 5645
5447 5450 5456 5460 5473 5469 5482 5493 5495 5505 5510 5524 5528 5532 5543 5551 5558 5562 5568 5583 5588 5593 5593 5592 5592 5592 5593 5597 5598 5598 5599 5600 5601 5603 5605 5609 5612 5613 5615 5615 5616 5618 5621 5624 5624 5627 5628 5619 5627 5632 5635 5636 5638 5634
5445 5450 5457 5463 5473 5476 5493 5499 5503 5508 5517 5524 5534 5544 5552 5554 5559 5564 5573 5583 5591 5591 5589 5589 5593 5594 5597 5598 5596 5597 5594 5594 5597 5603 5604 5608 5609 5605 5609 5610 5612 5612 5611 5614 5619 5620 5621 5623 5615 5625 5625 5625 5626 5628
5445 5454 5458 5458 5473 5483 5498 5508 5514 5515 5521 5529 5537 5548 5552 5555 5559 5569 5579 5584 5584 5586 5589 5594 5596 5595 5594 5595 5595 5591 5592 5595 5595 5596 5597 5602 5603 5605 5603 5607 5607 5606 5608 5605 5607 5611 5615 5618 5618 5618 5614 5615 5616 5617
5449 5467 5460 5486 5492 5498 5506 5509 5512 5516 5524 5532 5539 5543 5542 5544 5551 5571 5577 5580 5581 5582 5585 5588 5589 5590 5590 5593 5593 5589 5585 5587 5587 5587 5586 5596 5599 5599 5601 5600 5599 5599 5602 5602 5601 5599 5599 5605 5606 5606 5604 5603 5601 5608
5461 5477 5487 5494 5498 5498 5506 5516 5520 5524 5529 5530 5535 5532 5539 5546 5558 5571 5575 5576 5576 5581 5583 5583 5592 5592 5587 5582 5583 5585 5590 5591 5590 5590 5591 5594 5595 5597 5598 5597 5596 5593 5595 5593 5593 5593 5592 5587 5586 5586 5585 5588 5589 5588
5475 5484 5491 5499 5502 5507 5507 5510 5517 5526 5530 5529 5530 5541 5548 5552 5559 5568 5570 5571 5575 5577 5576 5580 5585 5582 5578 5578 5581 5583 5584 5587 5589 5592 5596 5596 5594 5593 5593 5593 5590 5582 5588 5586 5593 5596 5594 5592 5590 5586 5585 5585 5585 5585
5484 5492 5494 5503 5509 5505 5511 5518 5528 5529 5528 5527 5530 5542 5552 5558 5560 5566 5571 5575 5580 5580 5580 5579 5582 5579 5576 5574 5576 5575 5581 5592 5588 5585 5585 5584 5584 5584 5587 5589 5588 5589 5590 5585 5572 5576 5577 5580 5582 5582 5580 5579 5578 5578
5497 5501 5507 5516 5520 5526 5532 5529 5532 5535 5536 5536 5538 5551 5559 5560 5566 5568 5573 5579 5587 5587 5589 5590 5587 5583 5580 5577 5572 5574 5581 5583 5582 5580 5577 5576 5576 5577 5578 5579 5579 5577 5576 5578 5578 5572 5569 5568 5567 5573 5569 5565 5561 5564
5508 5505 5509 5519 5526 5533 5538 5540 5543 5548 5553 5557 5563 5571 5568 5568 5571 5575 5578 5582 5585 5588 5587 5587 5586 5585 5584 5584 5580 5577 5572 5572 5571 5570 5572 5573 5572 5569 5569 5569 5569 5568 5567 5566 5565 5563 5563 5559 5555 5551 5547 5544 5539 5537
5516 5520 5523 5525 5535 5548 5551 5552 5559 5564 5564 5569 5574 5582 5579 5575 5576 5580 5577 5583 5582 5580 5575 5581 5578 5576 5577 5574 5571 5567 5564 5562 5560 5559 5559 5561 5560 5558 5559 5558 5557 5556 5554 5552 5549 5546 5544 5541 5537 5534 5532 5526 5523 5520
5528 5529 5532 5533 5543 5555 5564 5569 5576 5573 5572 5569 5569 5573 5581 5581 5575 5577 5578 5581 5583 5581 5578 5576 5573 5570 5567 5565 5560 5555 5551 5544 5537 5536 5537 5537 5537 5543 5548 5546 5544 5542 5539 5536 5532 5528 5524 5520 5517 5513 5511 5508 5505 5502